This demonstration page uses our WeatherBlox Daily Observations layout. Learn more.

Left ArrowRight Arrow

44.8408, -93.29828

Hourly Observations for September 15, 2020

Temp ( °F °C ) Dew Point ( °F °C ) Humidity (%) Winds ( mph kmh ) Pressure ( in mb ) Visibility ( mi km ) Precip ( " mm )
12:53 am 00:53 Mostly Clear 69 20.6 57 13.9 66 66 SSW 10 17 30.10 1019 10 16 0.00 0.00
1:53 am 01:53 Mostly Clear 68 20 57 13.9 68 68 SW 13 20 30.09 1019 10 16 0.00 0.00
2:53 am 02:53 Clear 68 20 57 13.9 68 68 SW 12 19 30.09 1019 10 16 0.00 0.00
3:53 am 03:53 Clear 66 18.9 57 13.9 73 73 SW 13 20 30.08 1019 10 16 0.00 0.00
4:53 am 04:53 Clear 65 18.3 57 13.9 76 76 SSW 9 15 30.07 1018 10 16 0.00 0.00
5:53 am 05:53 Clear 66 18.9 57 13.9 73 73 SW 13 20 30.06 1018 10 16 0.00 0.00
6:53 am 06:53 Mostly Sunny 65 18.3 58 14.4 78 78 SW 14 22 30.06 1018 10 16 0.00 0.00
7:53 am 07:53 Partly Cloudy 65 18.3 58 14.4 78 78 SW 15 24 30.05 1018 10 16 0.00 0.00
8:53 am 08:53 Partly Cloudy 65 18.3 58 14.4 78 78 SW 16 26 30.03 1017 10 16 0.00 0.00
9:53 am 09:53 Partly Cloudy 67 19.4 58 14.4 73 73 SW 16 26 30.02 1017 10 16 0.00 0.00
10:53 am 10:53 Partly Cloudy 70 21.1 59 15 68 68 SW 14 22 30.01 1016 10 16 0.00 0.00
11:53 am 11:53 Partly Cloudy 73 22.8 58 14.4 59 59 SW 17 28 29.99 1016 10 16 0.00 0.00
12:53 pm 12:53 Partly Cloudy 76 24.4 58 14.4 54 54 SW 14 22 29.98 1015 10 16 0.00 0.00
1:53 pm 13:53 Partly Cloudy 77 25 57 13.9 50 50 WSW 18 30 29.96 1015 10 16 0.00 0.00
2:53 pm 14:53 Partly Cloudy 79 26.1 56 13.3 45 45 SW 17 28 29.94 1014 10 16 0.00 0.00
3:53 pm 15:53 Partly Cloudy 80 26.7 57 13.9 45 45 SW 12 19 29.93 1014 10 16 0.00 0.00
4:53 pm 16:53 Partly Cloudy 80 26.7 56 13.3 44 44 WSW 10 17 29.91 1013 10 16 0.00 0.00
5:53 pm 17:53 Partly Cloudy 80 26.7 57 13.9 45 45 SW 9 15 29.91 1013 10 16 0.00 0.00
6:53 pm 18:53 Partly Cloudy 78 25.6 58 14.4 50 50 SSW 3 6 29.90 1013 10 16 0.00 0.00
7:53 pm 19:53 Partly Cloudy 75 23.9 60 15.6 60 60 SSW 5 7 29.90 1013 10 16 0.00 0.00
8:53 pm 20:53 Partly Cloudy 74 23.3 59 15 60 60 SW 7 11 29.90 1013 10 16 0.00 0.00
9:53 pm 21:53 Partly Cloudy 73 22.8 58 14.4 59 59 SW 8 13 29.90 1013 10 16 0.00 0.00
10:53 pm 22:53 Partly Cloudy 71 21.7 58 14.4 63 63 SW 6 9 29.89 1012 10 16 0.00 0.00
11:53 pm 23:53 Partly Cloudy 70 21.1 57 13.9 64 64 WSW 8 13 29.89 1012 10 16 0.00 0.00

Powered by AerisWeather